Regional Weather Roundup
Issued by NWS

Home | Current Version | Previous Version | Graphics & Text | Print | Product List | Glossary On
Versions: 1 2 3 4 5 6 7 8 9 10 11 12 13 14 15 16 17 18 19 20 21 22 23 24 25 26 27 28 29 30 31 32 33 34 35 36 37 38 39 40 41 42 43 44 45 46 47 48 49 50
000
ASUS43 KFSD 271902
RWRSD

WEATHER ROUNDUP FOR SOUTH DAKOTA
NATIONAL WEATHER SERVICE SIOUX FALLS SD
200 PM CDT FRI MAY 27 2016

NOTE: "FAIR" INDICATES FEW OR NO CLOUDS BELOW 12,000 FEET WITH NO
SIGNIFICANT WEATHER AND/OR OBSTRUCTIONS TO VISIBILITY.


SDZ001>005-009-010-012>017-272000-
NORTHWEST AND NORTH CENTRAL SOUTH DAKOTA

CITY           SKY/WX    TMP DP  RH WIND       PRES   REMARKS
BUFFALO          N/A     63  44  50 NW9       29.79R
FAITH            N/A     65  45  48 E9        29.83F
MOBRIDGE       PTSUNNY   71  46  40 VRB3      29.80F
$$

SDZ012>016-024>037-041>051-057-063-072>074-272000-
SOUTHWEST AND SOUTH CENTRAL SOUTH DAKOTA

CITY           SKY/WX    TMP DP  RH WIND       PRES   REMARKS
RAPID CTY ARPT CLOUDY    64  45  49 N10       29.86S
PIERRE         CLOUDY    68  53  58 CALM      29.80F
CUSTER         LGT RAIN  51  42  71 E8        29.92S
ELLSWORTH AFB  CLOUDY    65  44  45 N9        29.85F
PHILIP         CLOUDY    65  48  54 VRB5      29.84F
PINE RIDGE     CLOUDY    58  47  66 E15G22    29.88F
WINNER         MOCLDY    67  53  61 N12       29.81R
$$

SDZ004>011-016>023-039-040-272000-
NORTHEAST SOUTH DAKOTA

CITY           SKY/WX    TMP DP  RH WIND       PRES   REMARKS
ABERDEEN       CLOUDY    72  55  55 SE7       29.78R
WATERTOWN      LGT RAIN  61  56  83 W5        29.79F
BROOKINGS      CLOUDY    66  58  75 NW9       29.78S
SISSETON         N/A     71  53  52 S13       29.76R
$$

SDZ017-020-022-023-036>040-048>070-272000-
SOUTHEAST SOUTH DAKOTA

CITY           SKY/WX    TMP DP  RH WIND       PRES   REMARKS
SIOUX FALLS    PTSUNNY   72  57  59 CALM      29.76S
HURON          CLOUDY    63  59  87 NW9       29.79S
MITCHELL       CLOUDY    65  60  84 NW10      29.78F
YANKTON        MOSUNNY   70  57  64 CALM      29.75F
$$

ABBREVIATIONS USED IN REMARKS
   TC - TEMPERATURE IN CELSIUS
  WCI - WIND CHILL INDEX
   HX - HEAT INDEX
  VSB - VISIBILITY





USA.gov is the U.S. government's official web portal to all federal, state and local government web resources and services.